FENGYUN 1C DEB, 30350

Orbit data source: Space-Track

FENGYUN 1C DEB, 30350 is space debris in SSO originally from a launch on Mon, 10 May 1999 UTC launched from the Taiyaun Space Center, China (TSC). Fengyun 1C debris stems from the Chinese weather satellite Fengyun-1C, which was intentionally destroyed by a Chinese anti-satellite missile in 2007. This event dramatically increased the amount of space debris, with thousands of trackable fragments posing hazards to satellites and human spaceflight. The Fengyun 1C debris cloud has become a focal point in discussions about space sustainability and the need for international regulations to prevent the creation of new debris.

Loading next visibility...
Identifier
30350, 1999-025ABM
Orbit
SSO
Country
Flag of CNCN / PRC
Related business
Manufacturer
Unknown
Mission
Spacecraft
Bus & Motor
Unknown
Mass
Unknown
Launch date (UTC)
1999-05-10 (27 years ago)
Launch vehicle
Unknown
Launch site
Taiyaun Space Center, China (TSC)
Object type
Payload
Rocket body
Debris
Shape & HBR
Unknown shape, 0.1 m
Radar Cross Section
Small (<0.1 m²)

Expand to show TLE details & history
Last TLE update: 15 hours ago

TLE from 15 hours ago
0 FENGYUN 1C DEB
1 30350U 99025ABM 26103.72453153  .00000499  00000-0  40825-3 0  9992
2 30350  98.1065 270.2508 0217561 332.4530  44.5209 13.83100758966683
Epoch: 2026-04-13T17:23Z
TLE epoch observation values (Epoch: 2026-04-13T17:23:19.524Z)
Latitude
18.55787°
Longitude
164.78211°
Altitude
843.281 km
Speed
7.489 km/s
True Right ascension
17h 50m 05s
True Declination
18° 27' 20"
Sunlit
Object was in daylight at epoch
Visualization orbit readout
Latitude
Unknown
Longitude
Unknown
Altitude
Unknown
Speed
Unknown
Apparent Right ascension
Unknown
Apparent Declination
Unknown
Sunlit
N/A
Visualization observer readout
Local Sidereal Time
15:12:56
Azimuth
Unknown
Elevation
Unknown
Doppler factor
Unknown
Orbital elements
Apogee altitude
1,109.522 km
Perigee altitude
790.654 km
Semi-major axis
7,328.225 km
Eccentricity
0.02176
Inclination
98.1065°
RAAN
270.2508°
Arg. of periapsis
332.453°
True anomaly
46.30321°
Mean anomaly
44.5209°
Eccentric anomaly
45.4086°
Mean motion
3.45975 °/min
Orbital period
104.05 mins
BSTAR
0.00040825
Loading maneuver chart data...
Computing Atmospheric mass density...
Loading historical data...
Loading historical data...
Loading historical data...
Loading historical data...
Loading historical data...
Loading historical data...
Loading historical data...

Documentation

Showing up to 5 results
|